Home > Weather > Trieste > Past weeks

Flag for Italy Past Weather in Trieste, Italy — Yesterday and Last 2 Weeks

Now
67 °F

Scattered clouds.


Feels Like: 67 °F
Forecast: 57 / 80 °F
Wind: No wind

Location: Trieste

Current Time: May 27, 2016 at 10:33:21 AM

Latest Report: May 27, 2016 at 9:00 AM


Visibility: 13 mi

Pressure: 30.03 "Hg

Humidity: 76%

Dew Point: 59 °F

Location of TriesteLocation

Past Weather in Trieste — Graph

°F

Trieste Temperature Yesterday

Maximum temperature yesterday: 75 °F (at 3:00 PM)
Minimum temperature yesterday: 58 °F (at 5:00 AM)
Average temperature yesterday: 66 °F

High & Low Weather Summary for the Past Weeks

 TemperatureHumidityPressure
High78 °F (May 23, 12:00 PM)97% (May 23, 7:00 PM)30.11 "Hg (May 23, 7:00 PM)
Low50 °F (May 17, 5:00 AM)31% (May 16, 11:00 AM)29.47 "Hg (May 12, 6:00 PM)
Average63 °F67%29.87 "Hg
* Reported May 12 9:00 AM — May 27 9:00 AM, Trieste, Weather by CustomWeather, © 2016

Note: Actual official high and low records may vary slightly from our data, if they occured in-between our weather recording intervals... More about our weather records

Advertising

Trieste Weather History for the Previous 24 Hours

Scroll right to see more
 ConditionsComfort  
Time TempWeatherWind HumidityBarometerVisibility
9:00 AM
Fri, May 27
67 °FScattered clouds.No wind76%30.03 "Hg12 mi
8:00 AM66 °FPassing clouds.No wind76%30.02 "Hg12 mi
7:00 AM62 °FPassing clouds.No wind82%30.01 "Hg12 mi
6:00 AM59 °FPassing clouds.1 mph87%30.01 "Hg12 mi
5:00 AM59 °FPassing clouds.No wind90%30.00 "Hg12 mi
4:00 AM59 °FPassing clouds.No wind88%30.00 "Hg12 mi
3:00 AM59 °FPassing clouds.No wind85%30.00 "Hg12 mi
2:00 AM61 °FClear.No wind79%30.00 "Hg12 mi
1:00 AM63 °FClear.No wind75%30.00 "Hg12 mi
12:00 AM63 °FClear.2 mph70%30.01 "Hg12 mi
11:00 PM
Thu, May 26
63 °FPassing clouds.1 mph70%30.00 "Hg12 mi
10:00 PM64 °FPassing clouds.2 mph65%29.99 "Hg12 mi
9:00 PM67 °FPassing clouds.2 mph65%29.99 "Hg12 mi
8:00 PM71 °FPassing clouds.No wind60%29.98 "Hg12 mi
7:00 PM73 °FPassing clouds.No wind50%29.98 "Hg12 mi
6:00 PM74 °FPassing clouds.1 mph47%29.98 "Hg12 mi
5:00 PM72 °FScattered clouds.No wind51%29.99 "Hg12 mi
4:00 PM72 °FPartly sunny.1 mph62%29.99 "Hg12 mi
3:00 PM75 °FScattered clouds.2 mph57%29.99 "Hg12 mi
2:00 PM72 °FSunny.1 mph65%29.99 "Hg12 mi
1:00 PM72 °FSunny.No wind63%29.99 "Hg12 mi
12:00 PM72 °FPassing clouds.1 mph63%29.99 "Hg12 mi
11:00 AM68 °FPassing clouds.No wind67%29.99 "Hg12 mi
10:00 AM68 °FPassing clouds.1 mph71%29.99 "Hg12 mi
Weather by CustomWeather, © 2016

See weather overviewHow to use our weather pages